Location: Hannover
(52.3723°N, 9.7339°E)
Time: 04:07:16
(UTC+02:00)

ISS - Pass Details

Date: 29 March 2019
Orbit: 408 x 410 km, 51.6° (Epoch: 21 April)

Event Time Altitude Azimuth Distance (km) Brightness Sun altitude
Rises 21:40:21 0° 280° (W) 2,339 0.9 -24.1°
Reaches altitude 10° 21:42:28 10° 275° (W) 1,476 -0.3 -24.4°
Enters shadow 21:43:56 23° 266° (W) 917 -1.7 -24.5°
